FW9475 Weather Reports


time (UTC)temp
C
wind
direction
speed
KPH
gust
KPH
rain 1hr
cm
rain 24hr
cm
rain mn
cm
humidity
%
barometer
mb
20260506134555 15 161 1.6 27.4 0.00 0.00 0.00 50 1020.2
20260506133045 15 0 1.6 14.5 0.00 0.00 0.00 52 1020.3
20260506131552 15 121 3.2 14.5 0.00 0.00 0.00 50 1020.1
20260506130059 15 159 8.0 24.1 0.00 0.00 0.00 50 1020.3
20260506124558 15 24 3.2 16.1 0.00 0.00 0.00 52 1020.5
20260506123050 14 68 0.0 12.9 0.00 0.00 0.00 53 1020.4
20260506121549 13 0 1.6 17.7 0.00 0.00 0.00 59 1020.6
20260506120048 12 91 3.2 16.1 0.00 0.00 0.00 60 1020.8
20260506114547 12 49 3.2 12.9 0.00 0.00 0.00 58 1020.8
20260506113053 12 77 0.0 4.8 0.00 0.00 0.00 60 1020.8
20260506111548 12 106 1.6 12.9 0.00 0.00 0.00 63 1020.9
20260506110053 11 71 0.0 14.5 0.00 0.00 0.00 62 1021.0
20260506104553 11 20 3.2 14.5 0.00 0.00 0.00 61 1021.0
20260506103050 11 215 1.6 6.4 0.00 0.00 0.00 63 1021.0
20260506101558 10 0 0.0 12.9 0.00 0.00 0.00 65 1021.0
20260506100109 10 0 1.6 8.0 0.00 0.00 0.00 66 1021.0
20260506094553 10 0 0.0 11.3 0.00 0.00 0.00 68 1021.0
20260506093053 10 147 1.6 11.3 0.00 0.00 0.00 68 1020.9
20260506091551 9 114 0.0 8.0 0.00 0.00 0.00 68 1020.9
20260506090050 9 205 1.6 6.4 0.00 0.00 0.00 71 1021.0
20260506084611 8 340 1.6 11.3 0.00 0.00 0.00 71 1021.0
20260506083048 8 183 0.0 12.9 0.00 0.00 0.00 74 1020.9
20260506081552 8 229 0.0 8.0 0.00 0.00 0.00 75 1020.9
20260506073048 8 0 0.0 6.4 0.00 0.00 0.00 77 1020.9
20260506071611 8 11 0.0 6.4 0.00 0.00 0.00 78 1020.7
20260506061550 7 199 0.0 8.0 0.00 0.00 0.00 79 1020.5
20260506044638 7 0 0.0 1.6 0.00 0.00 0.00 78 1020.2
20260506043050 7 32 0.0 8.0 0.00 0.00 0.00 78 1020.1
20260506041559 7 348 0.0 6.4 0.00 0.00 0.00 78 1020.1
20260506040054 7 40 0.0 3.2 0.00 0.00 0.00 78 1020.2
20260506034625 7 26 0.0 4.8 0.00 0.00 0.00 77 1020.1
20260506033101 7 65 1.6 8.0 0.00 0.00 0.00 76 1020.1
20260506031547 7 0 1.6 11.3 0.00 0.00 0.00 75 1020.2
20260506030051 8 32 1.6 9.7 0.00 0.00 0.00 75 1020.1
20260506024550 8 32 0.0 4.8 0.00 0.00 0.00 77 1020.3
20260506023107 8 35 0.0 14.5 0.00 0.00 0.00 79 1020.2
20260506021553 8 28 1.6 8.0 0.00 0.00 0.00 79 1020.1
20260506020050 8 10 0.0 6.4 0.00 0.00 0.00 79 1020.2
20260506014558 8 17 0.0 8.0 0.00 0.00 0.00 78 1020.3
20260506013052 8 26 1.6 6.4 0.00 0.00 0.00 77 1020.3
20260506011614 8 21 1.6 8.0 0.00 0.00 0.00 76 1020.4
20260506010100 9 0 4.8 14.5 0.00 0.00 0.00 75 1020.3
20260506004611 9 232 0.0 11.3 0.00 0.00 0.00 75 1020.3
20260506003103 9 186 1.6 12.9 0.00 0.00 0.00 76 1020.4
20260506001555 10 0 1.6 14.5 0.00 0.00 0.00 77 1020.3
20260506000053 10 217 1.6 8.0 0.00 0.00 0.00 79 1020.2
20260505234613 10 0 0.0 3.2 0.00 0.00 0.00 79 1020.2
20260505233048 10 0 0.0 11.3 0.00 0.00 0.00 79 1020.1
20260505231551 10 38 0.0 16.1 0.00 0.00 0.00 79 1020.2
20260505230045 10 53 0.0 4.8 0.00 0.00 0.00 79 1020.2
20260505224551 10 46 0.0 3.2 0.00 0.00 0.00 80 1020.1
20260505223050 10 0 0.0 1.6 0.00 0.00 0.00 80 1020.1
20260505221551 10 217 0.0 1.6 0.00 0.00 0.00 80 1020.1
20260505220103 10 205 0.0 1.6 0.00 0.00 0.00 79 1020.1
20260505214602 10 0 0.0 1.6 0.00 0.00 0.00 78 1020.0
20260505213100 10 0 0.0 1.6 0.00 0.00 0.00 77 1020.1
20260505211557 11 0 0.0 1.6 0.00 0.00 0.00 76 1020.1
20260505210048 11 0 0.0 3.2 0.00 0.00 0.00 75 1020.0
20260505204549 11 0 0.0 3.2 0.00 0.00 0.00 75 1020.0
20260505203054 11 0 0.0 3.2 0.00 0.00 0.00 74 1019.9
20260505201553 11 204 0.0 3.2 0.00 0.00 0.00 74 1019.9
20260505200054 11 207 0.0 4.8 0.00 0.00 0.00 73 1019.8
20260505194607 11 0 0.0 1.6 0.00 0.00 0.00 72 1019.6
20260505193057 12 198 0.0 3.2 0.00 0.00 0.00 71 1019.6
20260505191554 12 258 0.0 8.0 0.00 0.00 0.00 69 1019.4
20260505190050 12 239 0.0 6.4 0.00 0.00 0.00 68 1019.4
20260505184553 12 242 0.0 4.8 0.00 0.00 0.00 68 1019.4
20260505183052 13 240 0.0 12.9 0.00 0.00 0.00 67 1019.3
20260505181550 13 267 0.0 6.4 0.00 0.00 0.00 66 1019.3
20260505180057 13 269 1.6 4.8 0.00 0.00 0.00 64 1019.2
20260505174604 13 213 0.0 9.7 0.00 0.00 0.00 64 1019.3
20260505173048 13 143 1.6 11.3 0.00 0.00 0.00 65 1019.3
20260505171548 13 155 1.6 11.3 0.00 0.00 0.00 63 1019.3
20260505170126 14 107 1.6 9.7 0.00 0.00 0.00 62 1019.4
20260505164550 14 253 1.6 6.4 0.00 0.00 0.00 60 1019.4
20260505163052 15 207 1.6 8.0 0.00 0.00 0.00 59 1019.3
20260505161601 15 170 1.6 14.5 0.00 0.00 0.00 59 1019.2
20260505153059 16 149 1.6 4.8 0.00 0.00 0.00 56 1019.3
20260505151551 16 192 3.2 8.0 0.00 0.00 0.00 56 1019.3